{"data":{"norad_id":48799,"epoch":"2026-05-24T18:50:27.278016Z","epoch_age_seconds":96693,"freshness":"FRESH","line1":"1 48799U 21045AJ  26144.78503794  .00000153  00000+0  37198-3 0  9998","line2":"2 48799  87.8990 263.8607 0001464  86.0683 274.0615 13.15547830241344","mean_motion":13.1554783,"eccentricity":0.0001464,"inclination_deg":87.899,"raan_deg":263.8607,"arg_perigee_deg":86.0683,"mean_anomaly_deg":274.0615,"bstar":0.00037198,"rev_number":24134,"period_min":109.46010226021,"perigee_km":1200.6638342175,"apogee_km":1202.8832320216,"semimajor_km":7579.9105331195,"source":"CELESTRAK","updated_at":"2026-05-25T13:38:22.448402Z"}}